User: anonymous   Login
Location: Slidell
(30.2789°N, 89.7378°W)
Time: 11:52:05
(UTC-06:00)
Language:

Cosmos 2360 Rocket - Orbit

View from above orbital plane
View from above orbital plane
View from above satellite
View from above satellite

Ground track
Ground track

The orbit data is extracted from the following two-line orbital elements,

1 25407U 98045B   16340.83998382  .00000278  00000-0  16570-3 0  9997
2 25407  71.0121  87.7420 0006650 157.0058 203.1364 14.15756534948813
Epoch (UTC): 05 December 2016 20:09:34
Eccentricity: 0.0006650
inclination: 71.0121°
perigee height: 835 km
apogee height: 844 km
right ascension of ascending node: 87.7420°
argument of perigee: 157.0058°
revolutions per day: 14.15756534
mean anomaly at epoch: 203.1364°
orbit number at epoch: 94881

The dashed part of the orbit path shows where the satellite is in the earth's shadow,  

DLR